Laredo, TX

12:09 PM CST on December 09, 2016 (GMT -0600)
Laredo International

Weather History for KLRD - May, 2013

Change the Weather History Date:

Thursday, May 2, 2013

  Actual Average Record
Temperature  
Mean Temperature 70 °F 79 °F  
Max Temperature 80 °F 91 °F 110 °F (2002)
Min Temperature 59 °F 68 °F 45 °F (1917)
Degree Days  
Heating Degree Days 0 0  
Month to date heating degree days 0 0  
Since 1 July heating degree days 515 926  
Cooling Degree Days 5 14  
Month to date cooling degree days 26 14  
Year to date cooling degree days 723 614  
Growing Degree Days 20 (Base 50)    
Moisture  
Dew Point 57 °F    
Average Humidity 62    
Maximum Humidity 84    
Minimum Humidity 40    
Precipitation  
Precipitation T in 0.07 in 2.08 in (1966)
Month to date precipitation T 0.07  
Year to date precipitation 2.49 4.45  
Sea Level Pressure  
Sea Level Pressure 30.08 in    
Wind  
Wind Speed 18 mph (NNE)    
Max Wind Speed 29 mph    
Max Gust Speed 38 mph    
Visibility 10 miles    
Events Rain    
T = Trace of Precipitation, MM = Missing Value Source: NWS Daily Summary

Daily Weather History Graph

Daily Weather History Graph

Search for Another Location

Airport or City:

Trip Planner

Search our weather history database for the weather conditions in past years. The results will help you decide how hot, cold, wet, or windy it might be!

Date:

Astronomy

May. 02, 2013 Rise Set
Actual Time 6:57 AM CDT 8:12 PM CDT
Civil Twilight 6:32 AM CDT 8:37 PM CDT
Nautical Twilight 6:03 AM CDT 9:06 PM CDT
Astronomical Twilight 5:33 AM CDT 9:37 PM CDT
Moon 2:07 AM CDT (5/2) 1:40 PM CDT (5/2)
Length of Visible Light 14h 04m
Length of Day
13h 14m
Waning Gibbous, 47% of the Moon is Illuminated
May 2
Waning Gibbous
May 9
New
May 17
First Quarter
May 24
Full
May 31
Last Quarter

Hourly Weather History & Observations

Time (CDT) Temp. Dew Point Humidity Pressure Visibility Wind Dir Wind Speed Gust Speed Precip Events Conditions
12:56 AM 77.9 °F 68.9 °F 74% 29.85 in 10.0 mi SE 12.7 mph - 0.00 in Rain Light Rain
1:23 AM 78.8 °F 69.8 °F 74% 29.88 in 10.0 mi ESE 13.8 mph - 0.00 in   Overcast
1:56 AM 77.0 °F 68.9 °F 76% 29.90 in 9.0 mi NE 15.0 mph 19.6 mph 0.00 in   Overcast
2:03 AM 77.0 °F 69.8 °F 78% 29.93 in 9.0 mi ENE 13.8 mph - N/A   Overcast
2:56 AM 74.8 °F 68.0 °F 79% 29.90 in 9.0 mi East 13.8 mph 23.0 mph N/A   Overcast
3:36 AM 73.4 °F 68.0 °F 83% 29.96 in 9.0 mi ENE 13.8 mph - N/A   Overcast
3:56 AM 73.9 °F 68.0 °F 82% 29.93 in 9.0 mi ENE 18.4 mph - N/A   Overcast
4:56 AM 73.9 °F 68.9 °F 84% 29.92 in 9.0 mi ESE 11.5 mph - 0.00 in Rain Light Rain
5:09 AM 73.4 °F 69.8 °F 88% 29.96 in 9.0 mi East 11.5 mph - 0.00 in Rain Light Rain
5:56 AM 73.9 °F 66.9 °F 79% 29.92 in 10.0 mi SSE 10.4 mph - 0.00 in Rain Light Rain
6:56 AM 72.9 °F 66.9 °F 82% 29.96 in 9.0 mi NNE 4.6 mph - 0.00 in   Clear
7:56 AM 73.9 °F 66.9 °F 79% 29.97 in 10.0 mi Calm Calm - N/A   Clear
8:56 AM 77.0 °F 66.9 °F 71% 29.99 in 10.0 mi WSW 8.1 mph - N/A   Clear
9:44 AM 78.8 °F 66.2 °F 65% 30.10 in 10.0 mi NNW 13.8 mph - N/A   Mostly Cloudy
9:56 AM 77.9 °F 65.8 °F 66% 30.07 in 10.0 mi NNW 17.3 mph - N/A   Mostly Cloudy
10:29 AM 78.8 °F 64.4 °F 61% 30.12 in 10.0 mi North 18.4 mph - N/A   Mostly Cloudy
10:56 AM 73.9 °F 55.9 °F 53% 30.11 in 10.0 mi NNW 26.5 mph 32.2 mph N/A   Overcast
11:56 AM 70.9 °F 52.0 °F 51% 30.16 in 10.0 mi North 24.2 mph 31.1 mph N/A   Mostly Cloudy
12:56 PM 70.9 °F 50.9 °F 49% 30.17 in 10.0 mi North 24.2 mph 32.2 mph N/A   Overcast
1:56 PM 70.0 °F 48.9 °F 47% 30.16 in 10.0 mi NNW 23.0 mph 32.2 mph N/A   Mostly Cloudy
2:56 PM 70.0 °F 46.9 °F 44% 30.15 in 10.0 mi NNW 23.0 mph 32.2 mph N/A   Mostly Cloudy
3:56 PM 72.0 °F 46.9 °F 41% 30.14 in 10.0 mi North 26.5 mph 32.2 mph N/A   Mostly Cloudy
4:56 PM 72.0 °F 46.9 °F 41% 30.15 in 10.0 mi North 24.2 mph 27.6 mph N/A   Overcast
5:56 PM 70.0 °F 45.9 °F 42% 30.18 in 10.0 mi North 21.9 mph 31.1 mph N/A   Overcast
6:56 PM 68.0 °F 43.9 °F 42% 30.19 in 10.0 mi North 23.0 mph 26.5 mph N/A   Overcast
7:56 PM 65.8 °F 41.9 °F 42% 30.22 in 10.0 mi North 21.9 mph 27.6 mph N/A   Overcast
8:56 PM 64.9 °F 41.0 °F 42% 30.27 in 10.0 mi North 23.0 mph 26.5 mph N/A   Overcast
9:56 PM 63.0 °F 39.9 °F 43% 30.30 in 10.0 mi North 21.9 mph - N/A   Overcast
10:56 PM 61.9 °F 39.9 °F 44% 30.32 in 10.0 mi North 23.0 mph 26.5 mph N/A   Overcast
11:56 PM 59.0 °F 37.9 °F 46% 30.37 in 10.0 mi North 19.6 mph 31.1 mph N/A   Overcast